| time (UTC) | temp C | wind direction | speed KPH | gust KPH | rain 1hr cm | rain 24hr cm | rain mn cm | humidity % | barometer mb |
| 20260906075038 | 22 | 181 | 0.0 | 1.6 | 0.00 | 0.00 | 0.00 | 96 | 1048.0 |
| 20260906074532 | 22 | 162 | 0.0 | 0.0 | 0.00 | 0.00 | 0.00 | 96 | 1048.2 |
| 20260906074025 | 22 | 156 | 0.0 | 0.0 | 0.00 | 0.00 | 0.00 | 96 | 1047.8 |
| 20260906073520 | 22 | 157 | 0.0 | 0.0 | 0.00 | 0.00 | 0.00 | 96 | 1048.0 |
| 20260906073016 | 22 | 159 | 0.0 | 0.0 | 0.00 | 0.00 | 0.00 | 96 | 1048.0 |
| 20260906072506 | 22 | 149 | 0.0 | 0.0 | 0.00 | 0.00 | 0.00 | 96 | 1048.0 |
| 20260906072002 | 22 | 167 | 0.0 | 0.0 | 0.00 | 0.00 | 0.00 | 96 | 1048.1 |
| 20260906071458 | 22 | 167 | 0.0 | 0.0 | 0.00 | 0.00 | 0.00 | 96 | 1047.9 |
| 20260906070953 | 22 | 159 | 0.0 | 0.0 | 0.00 | 0.00 | 0.00 | 96 | 1047.9 |
| 20260906070448 | 22 | 148 | 0.0 | 0.0 | 0.00 | 0.00 | 0.00 | 96 | 1048.0 |
| 20260906065944 | 22 | 149 | 0.0 | 0.0 | 0.00 | 0.00 | 0.00 | 96 | 1047.9 |
| 20260906065438 | 22 | 149 | 0.0 | 0.0 | 0.00 | 0.00 | 0.00 | 96 | 1047.8 |
| 20260906064934 | 22 | 159 | 0.0 | 0.0 | 0.00 | 0.00 | 0.00 | 96 | 1047.9 |
| 20260906064429 | 22 | 167 | 0.0 | 0.0 | 0.00 | 0.00 | 0.00 | 95 | 1047.8 |
| 20260906063924 | 22 | 161 | 0.0 | 0.0 | 0.00 | 0.00 | 0.00 | 95 | 1047.8 |
| 20260906063419 | 22 | 163 | 0.0 | 0.0 | 0.00 | 0.00 | 0.00 | 95 | 1047.7 |
| 20260906062915 | 23 | 163 | 0.0 | 0.0 | 0.00 | 0.00 | 0.00 | 95 | 1047.8 |
| 20260906062414 | 23 | 159 | 0.0 | 0.0 | 0.00 | 0.00 | 0.00 | 95 | 1047.9 |
| 20260906061909 | 23 | 172 | 0.0 | 0.0 | 0.00 | 0.00 | 0.00 | 95 | 1047.7 |
| 20260906061406 | 23 | 168 | 0.0 | 0.0 | 0.00 | 0.00 | 0.00 | 95 | 1047.8 |
| 20260906060859 | 23 | 163 | 0.0 | 0.0 | 0.00 | 0.00 | 0.00 | 95 | 1047.6 |
| 20260906060357 | 23 | 168 | 0.0 | 0.0 | 0.00 | 0.00 | 0.00 | 94 | 1047.7 |
| 20260906055853 | 23 | 161 | 0.0 | 0.0 | 0.00 | 0.00 | 0.00 | 94 | 1047.7 |
| 20260906055349 | 23 | 159 | 0.0 | 0.0 | 0.00 | 0.00 | 0.00 | 94 | 1047.8 |
| 20260906054844 | 23 | 158 | 0.0 | 0.0 | 0.00 | 0.00 | 0.00 | 94 | 1047.7 |
| 20260906054338 | 23 | 160 | 0.0 | 0.0 | 0.00 | 0.00 | 0.00 | 93 | 1047.7 |
| 20260906053835 | 23 | 167 | 0.0 | 0.0 | 0.00 | 0.00 | 0.00 | 93 | 1047.6 |
| 20260906053330 | 23 | 169 | 0.0 | 0.0 | 0.00 | 0.00 | 0.00 | 93 | 1047.7 |
| 20260906052826 | 23 | 170 | 0.0 | 0.0 | 0.00 | 0.00 | 0.00 | 93 | 1047.7 |
| 20260906052322 | 23 | 163 | 1.6 | 1.6 | 0.00 | 0.00 | 0.00 | 92 | 1047.8 |
| 20260906051819 | 23 | 160 | 0.0 | 0.0 | 0.00 | 0.00 | 0.00 | 92 | 1047.6 |
| 20260906051318 | 23 | 157 | 0.0 | 0.0 | 0.00 | 0.00 | 0.00 | 92 | 1047.7 |
| 20260906050814 | 23 | 170 | 0.0 | 0.0 | 0.00 | 0.00 | 0.00 | 92 | 1047.8 |
| 20260906050309 | 23 | 170 | 0.0 | 0.0 | 0.00 | 0.00 | 0.00 | 92 | 1047.9 |
| 20260906045808 | 24 | 142 | 1.6 | 1.6 | 0.00 | 0.00 | 0.00 | 92 | 1048.0 |
| 20260906045305 | 24 | 154 | 0.0 | 0.0 | 0.00 | 0.00 | 0.00 | 91 | 1047.9 |
| 20260906044759 | 24 | 165 | 0.0 | 0.0 | 0.00 | 0.00 | 0.00 | 91 | 1048.0 |
| 20260906044253 | 24 | 165 | 0.0 | 0.0 | 0.00 | 0.00 | 0.00 | 90 | 1047.9 |
| 20260906043749 | 24 | 162 | 0.0 | 0.0 | 0.00 | 0.00 | 0.00 | 90 | 1048.3 |
| 20260906043245 | 24 | 169 | 0.0 | 0.0 | 0.00 | 0.00 | 0.00 | 90 | 1048.1 |
| 20260906042744 | 24 | 178 | 0.0 | 0.0 | 0.00 | 0.00 | 0.00 | 89 | 1048.2 |
| 20260906042244 | 25 | 161 | 0.0 | 0.0 | 0.00 | 0.00 | 0.00 | 89 | 1048.4 |
| 20260906041739 | 25 | 156 | 0.0 | 0.0 | 0.00 | 0.00 | 0.00 | 89 | 1048.3 |
| 20260906041234 | 25 | 164 | 0.0 | 0.0 | 0.00 | 0.00 | 0.00 | 88 | 1048.3 |
| 20260906040730 | 25 | 167 | 0.0 | 0.0 | 0.00 | 0.00 | 0.00 | 88 | 1048.4 |
| 20260906040225 | 25 | 170 | 0.0 | 0.0 | 0.00 | 0.00 | 0.00 | 88 | 1048.3 |
| 20260906035721 | 25 | 171 | 0.0 | 0.0 | 0.00 | 0.00 | 0.00 | 87 | 1048.3 |
| 20260906035216 | 25 | 174 | 0.0 | 0.0 | 0.00 | 0.00 | 0.00 | 87 | 1048.6 |
| 20260906034716 | 25 | 158 | 0.0 | 0.0 | 0.00 | 0.00 | 0.00 | 87 | 1048.6 |
| 20260906034211 | 25 | 170 | 0.0 | 1.6 | 0.00 | 0.00 | 0.00 | 88 | 1048.4 |
| 20260906033707 | 25 | 163 | 0.0 | 0.0 | 0.00 | 0.00 | 0.00 | 88 | 1048.4 |
| 20260906033206 | 25 | 166 | 0.0 | 0.0 | 0.00 | 0.00 | 0.00 | 89 | 1048.4 |
| 20260906032703 | 25 | 151 | 0.0 | 0.0 | 0.00 | 0.00 | 0.00 | 89 | 1048.3 |
| 20260906032158 | 25 | 144 | 0.0 | 1.6 | 0.00 | 0.00 | 0.00 | 88 | 1048.2 |
| 20260906031653 | 25 | 153 | 0.0 | 0.0 | 0.00 | 0.00 | 0.00 | 88 | 1048.2 |
| 20260906031148 | 25 | 162 | 0.0 | 0.0 | 0.00 | 0.00 | 0.00 | 88 | 1048.2 |
| 20260906030648 | 25 | 151 | 0.0 | 0.0 | 0.00 | 0.00 | 0.00 | 87 | 1048.2 |
| 20260906030143 | 25 | 159 | 0.0 | 0.0 | 0.00 | 0.00 | 0.00 | 86 | 1048.1 |
| 20260906025642 | 25 | 164 | 0.0 | 0.0 | 0.00 | 0.00 | 0.00 | 86 | 1048.0 |
| 20260906025142 | 26 | 169 | 0.0 | 0.0 | 0.00 | 0.00 | 0.00 | 86 | 1047.7 |
| 20260906024636 | 26 | 169 | 0.0 | 0.0 | 0.00 | 0.00 | 0.00 | 85 | 1047.9 |
| 20260906024130 | 26 | 170 | 0.0 | 0.0 | 0.00 | 0.00 | 0.00 | 85 | 1048.0 |
| 20260906023627 | 26 | 169 | 0.0 | 0.0 | 0.00 | 0.00 | 0.00 | 85 | 1048.0 |
| 20260906023126 | 26 | 170 | 0.0 | 0.0 | 0.00 | 0.00 | 0.00 | 85 | 1047.9 |
| 20260906022622 | 26 | 161 | 0.0 | 0.0 | 0.00 | 0.00 | 0.00 | 85 | 1047.9 |
| 20260906022117 | 26 | 156 | 0.0 | 0.0 | 0.00 | 0.00 | 0.00 | 84 | 1047.7 |
| 20260906021613 | 26 | 161 | 0.0 | 0.0 | 0.00 | 0.00 | 0.00 | 84 | 1047.7 |
| 20260906021111 | 26 | 160 | 0.0 | 0.0 | 0.00 | 0.00 | 0.00 | 83 | 1047.5 |
| 20260906020611 | 26 | 163 | 0.0 | 0.0 | 0.00 | 0.00 | 0.00 | 83 | 1047.6 |
| 20260906020106 | 26 | 181 | 1.6 | 4.8 | 0.00 | 0.00 | 0.00 | 82 | 1047.2 |
| 20260906015606 | 27 | 175 | 1.6 | 1.6 | 0.00 | 0.00 | 0.00 | 82 | 1047.1 |
| 20260906015105 | 27 | 158 | 0.0 | 0.0 | 0.00 | 0.00 | 0.00 | 81 | 1047.1 |
| 20260906014600 | 27 | 157 | 0.0 | 0.0 | 0.00 | 0.00 | 0.00 | 81 | 1046.9 |
| 20260906014056 | 27 | 158 | 0.0 | 0.0 | 0.00 | 0.00 | 0.00 | 81 | 1046.9 |
| 20260906013551 | 27 | 155 | 0.0 | 1.6 | 0.00 | 0.00 | 0.00 | 81 | 1047.0 |
| 20260906013046 | 27 | 160 | 0.0 | 0.0 | 0.00 | 0.00 | 0.00 | 81 | 1046.9 |
| 20260906012541 | 27 | 158 | 0.0 | 0.0 | 0.00 | 0.00 | 0.00 | 80 | 1046.9 |
| 20260906012041 | 27 | 168 | 0.0 | 0.0 | 0.00 | 0.00 | 0.00 | 80 | 1046.8 |
| 20260906011537 | 27 | 165 | 0.0 | 0.0 | 0.00 | 0.00 | 0.00 | 80 | 1046.8 |
| 20260906011036 | 28 | 129 | 1.6 | 1.6 | 0.00 | 0.00 | 0.00 | 78 | 1046.9 |
| 20260906010532 | 28 | 150 | 0.0 | 1.6 | 0.00 | 0.00 | 0.00 | 78 | 1046.8 |
| 20260906010028 | 28 | 151 | 0.0 | 0.0 | 0.00 | 0.00 | 0.00 | 76 | 1046.6 |
| 20260906005527 | 29 | 162 | 0.0 | 0.0 | 0.00 | 0.00 | 0.00 | 74 | 1046.8 |
| 20260906005027 | 29 | 159 | 0.0 | 1.6 | 0.00 | 0.00 | 0.00 | 73 | 1046.7 |
| 20260906004526 | 29 | 151 | 0.0 | 1.6 | 0.00 | 0.00 | 0.00 | 73 | 1046.4 |
| 20260906004022 | 30 | 168 | 0.0 | 0.0 | 0.00 | 0.00 | 0.00 | 71 | 1046.8 |
| 20260906003517 | 30 | 151 | 1.6 | 1.6 | 0.00 | 0.00 | 0.00 | 68 | 1046.3 |
| 20260906003013 | 30 | 162 | 0.0 | 0.0 | 0.00 | 0.00 | 0.00 | 66 | 1046.5 |
| 20260906002513 | 30 | 147 | 1.6 | 1.6 | 0.00 | 0.00 | 0.00 | 66 | 1046.6 |
| 20260906002008 | 31 | 145 | 0.0 | 0.0 | 0.00 | 0.00 | 0.00 | 64 | 1046.6 |
| 20260906001503 | 31 | 141 | 1.6 | 1.6 | 0.00 | 0.00 | 0.00 | 63 | 1046.5 |
| 20260906000957 | 31 | 184 | 1.6 | 1.6 | 0.00 | 0.00 | 0.00 | 61 | 1046.6 |
| 20260906000455 | 32 | 180 | 0.0 | 0.0 | 0.00 | 0.00 | 0.00 | 59 | 1046.6 |
| 20260905235948 | 33 | 177 | 0.0 | 1.6 | 0.00 | 0.00 | 0.00 | 57 | 1046.6 |
| 20260905235448 | 33 | 163 | 0.0 | 0.0 | 0.00 | 0.00 | 0.00 | 54 | 1046.6 |
| 20260905234943 | 35 | 166 | 0.0 | 1.6 | 0.00 | 0.00 | 0.00 | 54 | 1046.4 |
| 20260905234439 | 35 | 168 | 0.0 | 0.0 | 0.00 | 0.00 | 0.00 | 49 | 1046.7 |
| 20260905233938 | 35 | 169 | 0.0 | 0.0 | 0.00 | 0.00 | 0.00 | 50 | 1046.5 |
| 20260905233434 | 35 | 166 | 0.0 | 0.0 | 0.00 | 0.00 | 0.00 | 49 | 1046.5 |
| 20260905232932 | 35 | 170 | 0.0 | 0.0 | 0.00 | 0.00 | 0.00 | 47 | 1046.7 |
| 20260905232429 | 36 | 160 | 0.0 | 1.6 | 0.00 | 0.00 | 0.00 | 47 | 1046.6 |
| 20260905231924 | 36 | 169 | 0.0 | 1.6 | 0.00 | 0.00 | 0.00 | 47 | 1046.5 |
| 20260905231420 | 36 | 167 | 0.0 | 0.0 | 0.00 | 0.00 | 0.00 | 46 | 1046.3 |
| 20260905230916 | 36 | 163 | 0.0 | 1.6 | 0.00 | 0.00 | 0.00 | 45 | 1046.5 |
| 20260905230414 | 36 | 124 | 1.6 | 1.6 | 0.00 | 0.00 | 0.00 | 47 | 1046.3 |
| 20260905225913 | 36 | 153 | 0.0 | 1.6 | 0.00 | 0.00 | 0.00 | 46 | 1046.4 |
| 20260905225408 | 36 | 159 | 0.0 | 1.6 | 0.00 | 0.00 | 0.00 | 45 | 1046.6 |
| 20260905224903 | 36 | 153 | 0.0 | 3.2 | 0.00 | 0.00 | 0.00 | 46 | 1046.2 |
| 20260905224359 | 36 | 148 | 1.6 | 4.8 | 0.00 | 0.00 | 0.00 | 44 | 1046.2 |
| 20260905223853 | 36 | 179 | 0.0 | 3.2 | 0.00 | 0.00 | 0.00 | 44 | 1046.3 |
| 20260905223352 | 36 | 212 | 1.6 | 4.8 | 0.00 | 0.00 | 0.00 | 45 | 1046.4 |
| 20260905222851 | 36 | 177 | 0.0 | 1.6 | 0.00 | 0.00 | 0.00 | 44 | 1046.3 |
| 20260905222350 | 36 | 113 | 4.8 | 4.8 | 0.00 | 0.00 | 0.00 | 42 | 1046.5 |
| 20260905221846 | 36 | 144 | 3.2 | 8.0 | 0.00 | 0.00 | 0.00 | 44 | 1046.2 |
| 20260905221343 | 36 | 33 | 1.6 | 8.0 | 0.00 | 0.00 | 0.00 | 43 | 1046.5 |
| 20260905220839 | 36 | 243 | 4.8 | 8.0 | 0.00 | 0.00 | 0.00 | 44 | 1046.4 |
| 20260905220335 | 36 | 147 | 0.0 | 8.0 | 0.00 | 0.00 | 0.00 | 44 | 1046.5 |
| 20260905215834 | 36 | 44 | 1.6 | 8.0 | 0.00 | 0.00 | 0.00 | 44 | 1046.4 |
| 20260905215330 | 36 | 62 | 3.2 | 8.0 | 0.00 | 0.00 | 0.00 | 43 | 1046.4 |
| 20260905214826 | 36 | 62 | 3.2 | 9.7 | 0.00 | 0.00 | 0.00 | 43 | 1046.4 |
| 20260905214321 | 36 | 149 | 1.6 | 4.8 | 0.00 | 0.00 | 0.00 | 43 | 1046.6 |
| 20260905213816 | 37 | 113 | 3.2 | 9.7 | 0.00 | 0.00 | 0.00 | 43 | 1046.5 |
| 20260905213312 | 37 | 80 | 1.6 | 9.7 | 0.00 | 0.00 | 0.00 | 43 | 1046.7 |
| 20260905212813 | 37 | 152 | 0.0 | 0.0 | 0.00 | 0.00 | 0.00 | 43 | 1046.6 |
| 20260905212312 | 37 | 315 | 3.2 | 8.0 | 0.00 | 0.00 | 0.00 | 43 | 1046.7 |
| 20260905211807 | 36 | 31 | 1.6 | 8.0 | 0.00 | 0.00 | 0.00 | 42 | 1046.7 |
| 20260905211302 | 37 | 178 | 0.0 | 3.2 | 0.00 | 0.00 | 0.00 | 41 | 1047.0 |
| 20260905210759 | 36 | 90 | 6.4 | 9.7 | 0.00 | 0.00 | 0.00 | 42 | 1046.9 |
| 20260905210258 | 36 | 90 | 6.4 | 11.3 | 0.00 | 0.00 | 0.00 | 42 | 1047.0 |
| 20260905205757 | 37 | 49 | 3.2 | 8.0 | 0.00 | 0.00 | 0.00 | 43 | 1046.9 |
| 20260905205252 | 37 | 215 | 3.2 | 9.7 | 0.00 | 0.00 | 0.00 | 42 | 1047.0 |
| 20260905204751 | 36 | 148 | 0.0 | 4.8 | 0.00 | 0.00 | 0.00 | 43 | 1047.3 |
| 20260905204248 | 36 | 57 | 6.4 | 11.3 | 0.00 | 0.00 | 0.00 | 44 | 1047.4 |
| 20260905203746 | 36 | 99 | 4.8 | 9.7 | 0.00 | 0.00 | 0.00 | 44 | 1047.2 |
| 20260905203242 | 35 | 126 | 0.0 | 3.2 | 0.00 | 0.00 | 0.00 | 47 | 1047.5 |
| 20260905202738 | 36 | 88 | 8.0 | 9.7 | 0.00 | 0.00 | 0.00 | 45 | 1047.3 |
| 20260905202238 | 36 | 64 | 6.4 | 9.7 | 0.00 | 0.00 | 0.00 | 45 | 1047.3 |
| 20260905201733 | 37 | 306 | 4.8 | 9.7 | 0.00 | 0.00 | 0.00 | 42 | 1047.2 |
| 20260905201228 | 38 | 342 | 4.8 | 4.8 | 0.00 | 0.00 | 0.00 | 41 | 1047.3 |
| 20260905200723 | 37 | 145 | 1.6 | 1.6 | 0.00 | 0.00 | 0.00 | 40 | 1047.3 |
| 20260905200219 | 36 | 92 | 6.4 | 9.7 | 0.00 | 0.00 | 0.00 | 43 | 1047.7 |
| 20260905195717 | 36 | 89 | 6.4 | 9.7 | 0.00 | 0.00 | 0.00 | 43 | 1047.5 |
| 20260905195212 | 37 | 61 | 6.4 | 8.0 | 0.00 | 0.00 | 0.00 | 44 | 1047.5 |
| 20260905194708 | 36 | 82 | 6.4 | 11.3 | 0.00 | 0.00 | 0.00 | 46 | 1047.6 |
| 20260905194207 | 36 | 335 | 4.8 | 8.0 | 0.00 | 0.00 | 0.00 | 47 | 1047.9 |
| 20260905193701 | 36 | 260 | 6.4 | 11.3 | 0.00 | 0.00 | 0.00 | 45 | 1047.9 |
| 20260905193156 | 36 | 14 | 11.3 | 12.9 | 0.00 | 0.00 | 0.00 | 46 | 1048.1 |
| 20260905192652 | 36 | 41 | 3.2 | 8.0 | 0.00 | 0.00 | 0.00 | 48 | 1047.9 |
| 20260905192149 | 36 | 278 | 4.8 | 11.3 | 0.00 | 0.00 | 0.00 | 47 | 1048.3 |
| 20260905191648 | 36 | 153 | 1.6 | 3.2 | 0.00 | 0.00 | 0.00 | 45 | 1048.3 |
| 20260905191146 | 36 | 312 | 3.2 | 8.0 | 0.00 | 0.00 | 0.00 | 46 | 1048.6 |
| 20260905190645 | 35 | 58 | 6.4 | 9.7 | 0.00 | 0.00 | 0.00 | 47 | 1048.2 |
| 20260905190144 | 36 | 40 | 4.8 | 11.3 | 0.00 | 0.00 | 0.00 | 48 | 1048.4 |
| 20260905185643 | 37 | 113 | 1.6 | 4.8 | 0.00 | 0.00 | 0.00 | 44 | 1048.2 |
| 20260905185138 | 36 | 179 | 3.2 | 8.0 | 0.00 | 0.00 | 0.00 | 46 | 1048.4 |
| 20260905184637 | 37 | 134 | 4.8 | 4.8 | 0.00 | 0.00 | 0.00 | 44 | 1048.7 |
| 20260905184137 | 36 | 233 | 4.8 | 8.0 | 0.00 | 0.00 | 0.00 | 46 | 1048.6 |
| 20260905183636 | 36 | 163 | 0.0 | 4.8 | 0.00 | 0.00 | 0.00 | 47 | 1048.9 |
| 20260905183131 | 36 | 15 | 3.2 | 12.9 | 0.00 | 0.00 | 0.00 | 48 | 1048.9 |
| 20260905182631 | 36 | 346 | 6.4 | 11.3 | 0.00 | 0.00 | 0.00 | 49 | 1048.7 |
| 20260905182130 | 36 | 58 | 1.6 | 9.7 | 0.00 | 0.00 | 0.00 | 48 | 1048.9 |
| 20260905181626 | 36 | 50 | 4.8 | 8.0 | 0.00 | 0.00 | 0.00 | 48 | 1048.9 |
| 20260905181125 | 36 | 21 | 4.8 | 9.7 | 0.00 | 0.00 | 0.00 | 48 | 1049.1 |
| 20260905180620 | 36 | 174 | 1.6 | 3.2 | 0.00 | 0.00 | 0.00 | 50 | 1049.2 |
| 20260905180115 | 35 | 152 | 1.6 | 3.2 | 0.00 | 0.00 | 0.00 | 50 | 1049.1 |
| 20260905175614 | 35 | 114 | 1.6 | 9.7 | 0.00 | 0.00 | 0.00 | 50 | 1049.3 |
| 20260905175109 | 35 | 201 | 1.6 | 8.0 | 0.00 | 0.00 | 0.00 | 51 | 1049.0 |
| 20260905174605 | 35 | 247 | 6.4 | 11.3 | 0.00 | 0.00 | 0.00 | 50 | 1049.3 |
| 20260905174100 | 35 | 349 | 8.0 | 14.5 | 0.00 | 0.00 | 0.00 | 51 | 1049.2 |
| 20260905173557 | 35 | 322 | 6.4 | 11.3 | 0.00 | 0.00 | 0.00 | 50 | 1049.5 |
| 20260905173052 | 35 | 103 | 4.8 | 12.9 | 0.00 | 0.00 | 0.00 | 50 | 1049.4 |
| 20260905172550 | 35 | 216 | 1.6 | 4.8 | 0.00 | 0.00 | 0.00 | 50 | 1049.5 |
| 20260905172046 | 35 | 219 | 3.2 | 4.8 | 0.00 | 0.00 | 0.00 | 49 | 1049.5 |
| 20260905171542 | 35 | 95 | 6.4 | 8.0 | 0.00 | 0.00 | 0.00 | 48 | 1049.5 |
| 20260905171038 | 35 | 90 | 4.8 | 9.7 | 0.00 | 0.00 | 0.00 | 52 | 1049.6 |
| 20260905170535 | 35 | 211 | 3.2 | 9.7 | 0.00 | 0.00 | 0.00 | 52 | 1049.7 |
| 20260905170029 | 35 | 98 | 4.8 | 9.7 | 0.00 | 0.00 | 0.00 | 51 | 1049.6 |
| 20260905165525 | 34 | 199 | 3.2 | 4.8 | 0.00 | 0.00 | 0.00 | 52 | 1049.8 |
| 20260905165020 | 35 | 297 | 8.0 | 11.3 | 0.00 | 0.00 | 0.00 | 53 | 1050.0 |
| 20260905164520 | 35 | 216 | 4.8 | 8.0 | 0.00 | 0.00 | 0.00 | 54 | 1050.3 |
| 20260905164015 | 35 | 219 | 4.8 | 9.7 | 0.00 | 0.00 | 0.00 | 51 | 1050.2 |
| 20260905163511 | 33 | 24 | 3.2 | 4.8 | 0.00 | 0.00 | 0.00 | 54 | 1049.9 |
| 20260905163006 | 34 | 342 | 8.0 | 11.3 | 0.00 | 0.00 | 0.00 | 52 | 1050.2 |
| 20260905162501 | 35 | 3 | 1.6 | 11.3 | 0.00 | 0.00 | 0.00 | 52 | 1050.2 |
| 20260905161951 | 34 | 162 | 1.6 | 3.2 | 0.00 | 0.00 | 0.00 | 53 | 1050.2 |
| 20260905161450 | 34 | 151 | 6.4 | 11.3 | 0.00 | 0.00 | 0.00 | 53 | 1050.0 |
| 20260905160948 | 34 | 232 | 4.8 | 12.9 | 0.00 | 0.00 | 0.00 | 54 | 1050.5 |
| 20260905160442 | 34 | 156 | 1.6 | 9.7 | 0.00 | 0.00 | 0.00 | 54 | 1050.2 |
| 20260905155942 | 34 | 2 | 4.8 | 9.7 | 0.00 | 0.00 | 0.00 | 55 | 1050.4 |
| 20260905155437 | 34 | 291 | 6.4 | 8.0 | 0.00 | 0.00 | 0.00 | 56 | 1050.3 |
| 20260905154936 | 34 | 322 | 8.0 | 11.3 | 0.00 | 0.00 | 0.00 | 56 | 1050.4 |
| 20260905154431 | 33 | 108 | 3.2 | 8.0 | 0.00 | 0.00 | 0.00 | 56 | 1050.6 |
| 20260905153927 | 34 | 240 | 6.4 | 8.0 | 0.00 | 0.00 | 0.00 | 56 | 1050.4 |
| 20260905153423 | 34 | 266 | 6.4 | 9.7 | 0.00 | 0.00 | 0.00 | 55 | 1050.5 |
| 20260905152922 | 34 | 324 | 6.4 | 8.0 | 0.00 | 0.00 | 0.00 | 56 | 1050.3 |
| 20260905152421 | 33 | 66 | 4.8 | 8.0 | 0.00 | 0.00 | 0.00 | 55 | 1050.2 |
| 20260905151917 | 33 | 26 | 4.8 | 4.8 | 0.00 | 0.00 | 0.00 | 55 | 1050.3 |
| 20260905151412 | 33 | 168 | 0.0 | 4.8 | 0.00 | 0.00 | 0.00 | 60 | 1050.2 |
| 20260905150913 | 33 | 65 | 3.2 | 4.8 | 0.00 | 0.00 | 0.00 | 60 | 1050.1 |
| 20260905150413 | 33 | 158 | 1.6 | 3.2 | 0.00 | 0.00 | 0.00 | 61 | 1050.4 |
| 20260905145910 | 33 | 34 | 3.2 | 8.0 | 0.00 | 0.00 | 0.00 | 62 | 1050.4 |
| 20260905145410 | 33 | 123 | 0.0 | 3.2 | 0.00 | 0.00 | 0.00 | 63 | 1050.4 |
| 20260905144909 | 32 | 208 | 1.6 | 9.7 | 0.00 | 0.00 | 0.00 | 64 | 1050.7 |
| 20260905144405 | 32 | 243 | 1.6 | 3.2 | 0.00 | 0.00 | 0.00 | 62 | 1050.4 |
| 20260905143903 | 32 | 252 | 4.8 | 4.8 | 0.00 | 0.00 | 0.00 | 63 | 1050.2 |
| 20260905143358 | 32 | 160 | 0.0 | 1.6 | 0.00 | 0.00 | 0.00 | 67 | 1050.0 |
| 20260905142857 | 32 | 73 | 3.2 | 3.2 | 0.00 | 0.00 | 0.00 | 68 | 1050.4 |
| 20260905142356 | 31 | 159 | 0.0 | 3.2 | 0.00 | 0.00 | 0.00 | 68 | 1050.2 |
| 20260905141852 | 31 | 106 | 3.2 | 3.2 | 0.00 | 0.00 | 0.00 | 69 | 1050.5 |
| 20260905141347 | 31 | 153 | 0.0 | 1.6 | 0.00 | 0.00 | 0.00 | 70 | 1050.4 |
| 20260905140844 | 30 | 104 | 1.6 | 1.6 | 0.00 | 0.00 | 0.00 | 71 | 1050.5 |
| 20260905140343 | 30 | 134 | 0.0 | 1.6 | 0.00 | 0.00 | 0.00 | 72 | 1050.6 |
| 20260905135842 | 30 | 137 | 0.0 | 3.2 | 0.00 | 0.00 | 0.00 | 73 | 1050.4 |
| 20260905135338 | 29 | 129 | 0.0 | 1.6 | 0.00 | 0.00 | 0.00 | 77 | 1050.4 |
| 20260905134833 | 28 | 153 | 0.0 | 1.6 | 0.00 | 0.00 | 0.00 | 79 | 1050.8 |
| 20260905134332 | 28 | 153 | 1.6 | 1.6 | 0.00 | 0.00 | 0.00 | 80 | 1050.6 |
| 20260905133827 | 28 | 137 | 0.0 | 1.6 | 0.00 | 0.00 | 0.00 | 79 | 1050.6 |
| 20260905133322 | 28 | 158 | 0.0 | 0.0 | 0.00 | 0.00 | 0.00 | 81 | 1050.8 |
| 20260905132821 | 28 | 152 | 0.0 | 0.0 | 0.00 | 0.00 | 0.00 | 82 | 1050.6 |
| 20260905132317 | 27 | 157 | 0.0 | 0.0 | 0.00 | 0.00 | 0.00 | 85 | 1050.6 |
| 20260905131811 | 27 | 158 | 0.0 | 0.0 | 0.00 | 0.00 | 0.00 | 89 | 1050.8 |
| 20260905131307 | 26 | 157 | 0.0 | 0.0 | 0.00 | 0.00 | 0.00 | 94 | 1050.6 |
| 20260905130802 | 25 | 155 | 0.0 | 0.0 | 0.00 | 0.00 | 0.00 | 96 | 1050.8 |
| 20260905130301 | 25 | 160 | 0.0 | 0.0 | 0.00 | 0.00 | 0.00 | 97 | 1050.5 |
| 20260905125756 | 25 | 160 | 0.0 | 0.0 | 0.00 | 0.00 | 0.00 | 98 | 1050.4 |
| 20260905125256 | 24 | 160 | 0.0 | 0.0 | 0.00 | 0.00 | 0.00 | 99 | 1050.7 |
| 20260905124752 | 23 | 161 | 0.0 | 0.0 | 0.00 | 0.00 | 0.00 | 99 | 1050.7 |
| 20260905124248 | 23 | 159 | 0.0 | 0.0 | 0.00 | 0.00 | 0.00 | 99 | 1050.9 |
| 20260905123743 | 23 | 155 | 0.0 | 0.0 | 0.00 | 0.00 | 0.00 | 99 | 1050.7 |
| 20260905123240 | 22 | 156 | 0.0 | 0.0 | 0.00 | 0.00 | 0.00 | 99 | 1050.6 |
| 20260905122735 | 22 | 158 | 0.0 | 0.0 | 0.00 | 0.00 | 0.00 | 99 | 1050.5 |
| 20260905122234 | 21 | 148 | 0.0 | 0.0 | 0.00 | 0.00 | 0.00 | 99 | 1050.7 |
| 20260905121729 | 20 | 163 | 0.0 | 0.0 | 0.00 | 0.00 | 0.00 | 99 | 1050.4 |
| 20260905121226 | 20 | 158 | 0.0 | 0.0 | 0.00 | 0.00 | 0.00 | 99 | 1050.6 |
| 20260905120724 | 20 | 146 | 0.0 | 0.0 | 0.00 | 0.00 | 0.00 | 99 | 1050.3 |
| 20260905120219 | 20 | 150 | 0.0 | 0.0 | 0.00 | 0.00 | 0.00 | 99 | 1050.4 |
| 20260905115714 | 20 | 157 | 0.0 | 0.0 | 0.00 | 0.00 | 0.00 | 99 | 1050.3 |
| 20260905115209 | 20 | 161 | 0.0 | 0.0 | 0.00 | 0.00 | 0.00 | 99 | 1050.2 |
| 20260905114708 | 20 | 164 | 0.0 | 0.0 | 0.00 | 0.00 | 0.00 | 99 | 1050.2 |
| 20260905114207 | 20 | 165 | 0.0 | 0.0 | 0.00 | 0.00 | 0.00 | 99 | 1050.2 |
| 20260905113706 | 20 | 163 | 0.0 | 0.0 | 0.00 | 0.00 | 0.00 | 99 | 1050.3 |
| 20260905113202 | 20 | 152 | 0.0 | 0.0 | 0.00 | 0.00 | 0.00 | 99 | 1049.9 |
| 20260905112702 | 20 | 158 | 0.0 | 0.0 | 0.00 | 0.00 | 0.00 | 99 | 1050.2 |
| 20260905112158 | 20 | 161 | 0.0 | 0.0 | 0.00 | 0.00 | 0.00 | 99 | 1049.8 |
| 20260905111657 | 20 | 158 | 0.0 | 0.0 | 0.00 | 0.00 | 0.00 | 99 | 1049.7 |
| 20260905111157 | 20 | 160 | 0.0 | 0.0 | 0.00 | 0.00 | 0.00 | 99 | 1049.7 |
| 20260905110656 | 20 | 156 | 0.0 | 0.0 | 0.00 | 0.00 | 0.00 | 99 | 1049.7 |
| 20260905110151 | 20 | 153 | 0.0 | 0.0 | 0.00 | 0.00 | 0.00 | 99 | 1049.7 |
| 20260905105647 | 20 | 147 | 0.0 | 0.0 | 0.00 | 0.00 | 0.00 | 99 | 1049.7 |
| 20260905105145 | 20 | 159 | 0.0 | 0.0 | 0.00 | 0.00 | 0.00 | 99 | 1049.5 |
| 20260905104640 | 20 | 158 | 0.0 | 0.0 | 0.00 | 0.00 | 0.00 | 99 | 1049.6 |
| 20260905104136 | 20 | 143 | 0.0 | 1.6 | 0.00 | 0.00 | 0.00 | 99 | 1049.7 |
| 20260905103631 | 20 | 158 | 0.0 | 0.0 | 0.00 | 0.00 | 0.00 | 99 | 1049.4 |
| 20260905103127 | 20 | 158 | 0.0 | 0.0 | 0.00 | 0.00 | 0.00 | 99 | 1049.3 |
| 20260905102623 | 20 | 154 | 0.0 | 0.0 | 0.00 | 0.00 | 0.00 | 99 | 1049.5 |
| 20260905102119 | 21 | 151 | 0.0 | 0.0 | 0.00 | 0.00 | 0.00 | 99 | 1049.3 |
| 20260905101617 | 20 | 164 | 0.0 | 0.0 | 0.00 | 0.00 | 0.00 | 99 | 1049.4 |
| 20260905101116 | 21 | 167 | 0.0 | 0.0 | 0.00 | 0.00 | 0.00 | 99 | 1049.4 |
| 20260905100612 | 21 | 167 | 0.0 | 0.0 | 0.00 | 0.00 | 0.00 | 99 | 1049.5 |
| 20260905100107 | 21 | 165 | 0.0 | 0.0 | 0.00 | 0.00 | 0.00 | 99 | 1049.3 |
| 20260905095601 | 21 | 165 | 0.0 | 0.0 | 0.00 | 0.00 | 0.00 | 99 | 1049.5 |
| 20260905095056 | 21 | 167 | 0.0 | 0.0 | 0.00 | 0.00 | 0.00 | 99 | 1049.5 |
| 20260905094552 | 21 | 169 | 0.0 | 0.0 | 0.00 | 0.00 | 0.00 | 99 | 1049.5 |
| 20260905094051 | 21 | 161 | 0.0 | 0.0 | 0.00 | 0.00 | 0.00 | 99 | 1049.4 |
| 20260905093550 | 21 | 160 | 0.0 | 0.0 | 0.00 | 0.00 | 0.00 | 99 | 1049.5 |
| 20260905093048 | 21 | 155 | 0.0 | 0.0 | 0.00 | 0.00 | 0.00 | 99 | 1049.7 |
| 20260905092547 | 21 | 158 | 0.0 | 0.0 | 0.00 | 0.00 | 0.00 | 99 | 1049.3 |
| 20260905092043 | 21 | 162 | 0.0 | 0.0 | 0.00 | 0.00 | 0.00 | 99 | 1049.5 |
| 20260905091541 | 21 | 156 | 0.0 | 0.0 | 0.00 | 0.00 | 0.00 | 99 | 1049.2 |
| 20260905091036 | 21 | 154 | 0.0 | 1.6 | 0.00 | 0.00 | 0.00 | 99 | 1049.2 |
| 20260905090530 | 21 | 154 | 0.0 | 0.0 | 0.00 | 0.00 | 0.00 | 98 | 1049.3 |
| 20260905090026 | 21 | 150 | 0.0 | 0.0 | 0.00 | 0.00 | 0.00 | 98 | 1049.2 |
| 20260905085524 | 21 | 164 | 0.0 | 0.0 | 0.00 | 0.00 | 0.00 | 98 | 1049.1 |
| 20260905085021 | 21 | 164 | 0.0 | 0.0 | 0.00 | 0.00 | 0.00 | 98 | 1049.2 |
| 20260905084520 | 21 | 164 | 0.0 | 0.0 | 0.00 | 0.00 | 0.00 | 98 | 1049.2 |
| 20260905084016 | 21 | 165 | 0.0 | 0.0 | 0.00 | 0.00 | 0.00 | 98 | 1049.2 |
| 20260905083510 | 21 | 168 | 0.0 | 0.0 | 0.00 | 0.00 | 0.00 | 98 | 1049.3 |
| 20260905083007 | 21 | 165 | 0.0 | 0.0 | 0.00 | 0.00 | 0.00 | 98 | 1049.1 |
| 20260905082502 | 21 | 167 | 0.0 | 0.0 | 0.00 | 0.00 | 0.00 | 98 | 1049.1 |
| 20260905081957 | 21 | 166 | 0.0 | 0.0 | 0.00 | 0.00 | 0.00 | 98 | 1049.1 |
| 20260905081451 | 21 | 150 | 0.0 | 0.0 | 0.00 | 0.00 | 0.00 | 98 | 1049.3 |
| 20260905080950 | 21 | 153 | 0.0 | 0.0 | 0.00 | 0.00 | 0.00 | 98 | 1049.4 |
| 20260905080445 | 21 | 158 | 0.0 | 0.0 | 0.00 | 0.00 | 0.00 | 98 | 1049.4 |
| 20260905075944 | 21 | 155 | 0.0 | 0.0 | 0.00 | 0.00 | 0.00 | 98 | 1049.2 |
| 20260905075440 | 21 | 154 | 0.0 | 0.0 | 0.00 | 0.00 | 0.00 | 98 | 1049.4 |